TimeEST,TemperatureF,Dew PointF,Humidity,Sea Level PressureIn,VisibilityMPH,Wind Direction,Wind SpeedMPH,Gust SpeedMPH,PrecipitationIn,Events,Conditions,WindDirDegrees,DateUTC
12:53 AM,30.0,19.9,66,30.15,10.0,WNW,6.9,-,0.00,,Scattered Clouds,300,2012-11-29 05:53:00
1:53 AM,28.9,16.0,58,30.18,10.0,WNW,3.5,-,N/A,,Clear,290,2012-11-29 06:53:00
2:53 AM,27.0,14.0,58,30.20,10.0,WNW,5.8,-,N/A,,Clear,300,2012-11-29 07:53:00
3:53 AM,24.1,14.0,65,30.22,10.0,North,4.6,-,N/A,,Mostly Cloudy,350,2012-11-29 08:53:00
4:53 AM,25.0,15.1,66,30.22,10.0,Calm,Calm,-,N/A,,Overcast,0,2012-11-29 09:53:00
5:53 AM,26.1,15.1,63,30.22,10.0,Calm,Calm,-,N/A,,Overcast,0,2012-11-29 10:53:00
6:53 AM,26.1,14.0,60,30.22,10.0,Calm,Calm,-,N/A,,Overcast,0,2012-11-29 11:53:00
7:53 AM,26.1,17.1,69,30.20,10.0,Calm,Calm,-,N/A,,Overcast,0,2012-11-29 12:53:00
8:53 AM,27.0,16.0,63,30.19,10.0,Calm,Calm,-,N/A,,Overcast,0,2012-11-29 13:53:00
9:53 AM,28.9,18.0,64,30.18,10.0,South,6.9,-,N/A,,Overcast,170,2012-11-29 14:53:00
10:53 AM,33.1,19.9,59,30.13,10.0,South,6.9,-,N/A,,Overcast,170,2012-11-29 15:53:00
11:53 AM,37.0,23.0,57,30.09,10.0,SW,10.4,21.9,N/A,,Overcast,230,2012-11-29 16:53:00
12:53 PM,37.0,25.0,62,30.07,9.0,SSW,9.2,17.3,0.00,Snow,Light Snow,210,2012-11-29 17:53:00
1:53 PM,35.1,28.9,78,30.06,3.0,SSW,3.5,-,0.00,Snow,Light Snow,210,2012-11-29 18:53:00
2:09 PM,33.8,30.2,87,30.04,2.5,Calm,Calm,-,0.01,Snow,Light Snow,0,2012-11-29 19:09:00
2:19 PM,33.8,30.2,87,30.04,1.8,Calm,Calm,-,0.01,Snow,Light Snow,0,2012-11-29 19:19:00
2:53 PM,33.1,32.0,96,30.07,1.2,Calm,Calm,-,0.03,Snow,Light Snow,0,2012-11-29 19:53:00
3:24 PM,32.0,32.0,100,30.07,2.5,Calm,Calm,-,0.01,Snow,Light Snow,0,2012-11-29 20:24:00
3:36 PM,32.0,32.0,100,30.08,3.0,Calm,Calm,-,0.01,Snow,Light Snow,0,2012-11-29 20:36:00
3:53 PM,32.0,30.9,96,30.10,2.5,Calm,Calm,-,0.02,Snow,Light Snow,0,2012-11-29 20:53:00
4:31 PM,32.0,32.0,100,30.09,4.0,Calm,Calm,-,0.00,,Overcast,0,2012-11-29 21:31:00
4:47 PM,33.8,30.2,87,30.10,2.5,North,5.8,-,0.01,Snow,Light Snow,360,2012-11-29 21:47:00
4:48 PM,32.0,30.9,96,30.12,2.5,North,4.6,-,0.01,Snow,Light Snow,360,2012-11-29 21:48:00
5:18 PM,32.0,28.4,87,30.12,5.0,NNW,10.4,-,0.00,Snow,Light Snow,330,2012-11-29 22:18:00
5:34 PM,32.0,26.6,80,30.14,9.0,NNW,8.1,-,0.00,Snow,Light Snow,330,2012-11-29 22:34:00
5:53 PM,30.9,26.1,82,30.17,10.0,NNW,5.8,-,0.00,,Overcast,330,2012-11-29 22:53:00
6:44 PM,30.2,26.6,86,30.17,2.5,North,5.8,-,0.00,Snow,Light Snow,350,2012-11-29 23:44:00
6:53 PM,30.0,27.0,88,30.18,2.0,NNW,5.8,-,0.00,Snow,Light Snow,330,2012-11-29 23:53:00
7:13 PM,28.4,24.8,86,30.18,4.0,North,17.3,-,0.00,Snow,Light Snow,350,2012-11-30 00:13:00
7:50 PM,26.6,19.4,74,30.22,9.0,NNW,16.1,25.3,0.00,Snow,Light Snow,330,2012-11-30 00:50:00
7:53 PM,26.1,19.0,75,30.24,7.0,NNW,16.1,-,0.00,Snow,Light Snow,330,2012-11-30 00:53:00
8:37 PM,24.8,19.4,80,30.26,2.5,NNW,6.9,-,0.00,Snow,Light Snow,330,2012-11-30 01:37:00
8:53 PM,23.0,19.0,85,30.29,3.0,North,13.8,-,0.00,Snow,Light Snow,350,2012-11-30 01:53:00
9:24 PM,23.0,17.6,80,30.28,5.0,NNW,10.4,-,0.00,Snow,Light Snow,330,2012-11-30 02:24:00
9:53 PM,23.0,15.1,72,30.30,10.0,NW,8.1,-,0.00,,Overcast,320,2012-11-30 02:53:00
10:53 PM,21.9,14.0,72,30.33,10.0,North,6.9,-,N/A,,Overcast,360,2012-11-30 03:53:00
11:53 PM,21.9,12.9,68,30.37,10.0,North,8.1,-,N/A,,Overcast,360,2012-11-30 04:53:00